Location: Kawakawa
(35.3830°S, 174.0670°E)
Time: 02:54:32
(UTC+13:00)

Cosmos 2315 Rocket - Pass Details

Date: 24 January 2019
Orbit: 967 x 1001 km, 82.9° (Epoch: 21 February)

Event Time Altitude Azimuth Distance (km) Brightness Sun altitude
Rises 21:58:07 0° 186° (S) 3,739 7.7 -14.9°
Reaches altitude 10° 22:00:40 10° 185° (S) 2,779 7.0 -15.3°
Maximum altitude 22:07:04 83° 97° (E) 1,003 4.0 -16.3°
Enters shadow 22:12:15 16° 8° (N) 2,323 5.5 -17.2°
